FW1286 Weather Reports


Display with metric or nautical units.
time (UTC)temp
F
wind
direction
speed
MPH
gust
MPH
rain 1hr
in
rain 24hr
in
rain mn
in
humidity
%
barometer
mb
20221203055439 64 113 7.0 13.0 0.00 0.07 0.06 93 1022.4
20221203054406 64 139 7.0 14.0 0.00 0.07 0.06 93 1022.3
20221203053345 64 130 8.0 14.0 0.00 0.07 0.06 93 1022.3
20221203052403 64 128 6.0 14.0 0.00 0.07 0.06 93 1022.2
20221203051405 64 121 7.0 14.0 0.00 0.07 0.06 93 1022.2
20221203050407 64 130 7.0 14.0 0.00 0.07 0.06 93 1022.2
20221203045355 64 111 5.0 14.0 0.00 0.08 0.06 93 1021.9
20221203044414 64 123 5.0 11.0 0.00 0.08 0.06 93 1021.9
20221203043351 64 105 5.0 12.0 0.00 0.08 0.06 93 1021.8
20221203042356 65 83 5.0 13.0 0.00 0.08 0.06 93 1021.7
20221203041349 65 134 5.0 13.0 0.00 0.08 0.06 93 1021.7
20221203040400 65 69 6.0 12.0 0.00 0.08 0.06 93 1021.5
20221203035407 65 161 6.0 12.0 0.00 0.08 0.06 93 1021.3
20221203034358 65 138 5.0 12.0 0.00 0.08 0.06 93 1021.2
20221203033410 65 89 5.0 12.0 0.00 0.08 0.06 93 1021.1
20221203032423 65 102 5.0 11.0 0.00 0.08 0.06 93 1021.0
20221203031407 65 109 4.0 13.0 0.00 0.08 0.06 93 1020.9
20221203030337 65 128 7.0 13.0 0.00 0.08 0.06 93 1020.8
20221203025311 65 49 6.0 15.0 0.00 0.09 0.06 93 1020.7
20221203024237 65 94 6.0 15.0 0.00 0.09 0.06 93 1020.4
20221203023244 65 120 6.0 13.0 0.00 0.09 0.06 93 1020.4
20221203022231 65 119 5.0 9.0 0.00 0.09 0.06 93 1020.2
20221203021210 65 104 5.0 12.0 0.00 0.09 0.06 92 1020.1
20221203020145 66 80 6.0 13.0 0.00 0.09 0.06 92 1020.0
20221203015113 66 74 5.0 14.0 0.00 0.09 0.06 92 1019.7
20221203014110 66 111 7.0 17.0 0.00 0.09 0.06 92 1019.7
20221203013114 66 136 7.0 17.0 0.00 0.09 0.06 92 1019.7
20221203012113 66 103 6.0 15.0 0.00 0.10 0.06 92 1019.6
20221203011055 66 94 5.0 11.0 0.00 0.10 0.06 92 1019.4
20221203010041 65 117 5.0 13.0 0.00 0.10 0.06 93 1019.3
20221203005057 65 109 5.0 13.0 0.00 0.10 0.06 92 1019.1
20221202233250 68 82 5.0 13.0 0.00 0.10 0.06 88 1018.2
20221202221453 72 109 6.0 13.0 0.00 0.10 0.06 83 1017.3
20221202205625 72 61 7.0 17.0 0.00 0.10 0.06 83 1017.4
20221202204609 72 114 7.0 17.0 0.00 0.10 0.06 84 1017.5
20221202203620 71 85 7.0 17.0 0.00 0.10 0.06 85 1017.6
20221202202617 71 107 7.0 19.0 0.00 0.10 0.06 87 1017.7
20221202201606 70 119 8.0 19.0 0.00 0.10 0.06 87 1017.9
20221202200616 70 94 8.0 18.0 0.00 0.10 0.06 88 1017.9
20221202195607 69 128 7.0 19.0 0.00 0.10 0.06 89 1018.0
20221202194558 68 103 7.0 19.0 0.00 0.10 0.06 90 1018.1
20221202193545 68 110 7.0 15.0 0.00 0.10 0.06 91 1018.2
20221202192539 67 74 7.0 15.0 0.00 0.10 0.06 93 1018.4
20221202191539 67 132 6.0 13.0 0.00 0.10 0.06 95 1018.6
20221202190533 66 108 7.0 13.0 0.00 0.10 0.06 97 1018.6
20221202185554 65 106 4.0 12.0 0.00 0.10 0.06 98 1018.7
20221202184602 65 124 5.0 10.0 0.00 0.10 0.06 98 1019.0
20221202183609 64 125 5.0 8.0 0.00 0.10 0.06 98 1019.1
20221202182626 63 86 5.0 9.0 0.00 0.10 0.06 98 1019.3
20221202181639 63 98 5.0 11.0 0.00 0.10 0.06 98 1019.5
20221202180631 62 123 5.0 11.0 0.00 0.10 0.06 98 1019.8
20221202175646 62 111 4.0 10.0 0.00 0.10 0.06 98 1020.0
20221202174651 61 80 5.0 10.0 0.00 0.10 0.06 98 1020.4
20221202173620 60 92 3.0 7.0 0.00 0.10 0.06 98 1020.6
20221202172634 59 95 3.0 7.0 0.00 0.10 0.06 98 1020.7
20221202171605 59 88 2.0 7.0 0.00 0.10 0.06 98 1020.9
20221202170630 58 79 3.0 7.0 0.00 0.10 0.06 98 1021.0
20221202165606 58 128 3.0 6.0 0.00 0.10 0.06 97 1021.2
20221202164532 57 128 2.0 7.0 0.00 0.10 0.06 98 1021.2
20221202163554 57 156 3.0 8.0 0.00 0.10 0.06 98 1021.2
20221202162617 56 103 4.0 8.0 0.00 0.10 0.06 98 1021.1
20221202161641 56 76 3.0 7.0 0.00 0.10 0.06 97 1021.0
20221202160627 55 74 2.0 5.0 0.00 0.10 0.06 98 1020.9
20221202155556 54 92 1.0 5.0 0.00 0.10 0.06 97 1021.0
20221202154608 54 88 1.0 4.0 0.00 0.10 0.06 97 1020.9
20221202153605 53 60 1.0 4.0 0.00 0.09 0.05 97 1020.8
20221202152612 53 74 0.0 4.0 0.00 0.09 0.05 97 1020.8
20221202151547 52 107 1.0 4.0 0.00 0.09 0.05 97 1020.8
20221202150521 52 57 1.0 4.0 0.00 0.09 0.05 97 1020.8
20221202145509 52 69 1.0 4.0 0.00 0.09 0.05 97 1020.8
20221202144502 52 97 0.0 3.0 0.00 0.09 0.05 97 1020.7
20221202143527 52 69 0.0 3.0 0.00 0.09 0.05 97 1020.7
20221202142524 52 49 0.0 3.0 0.00 0.09 0.05 97 1020.7
20221202141520 51 40 0.0 1.0 0.00 0.09 0.05 97 1020.8
20221202140530 51 18 0.0 1.0 0.00 0.09 0.05 97 1020.7
20221202135544 51 26 0.0 2.0 0.00 0.09 0.05 97 1020.8
20221202134559 51 47 0.0 3.0 0.00 0.09 0.05 97 1020.8
20221202133554 51 58 0.0 4.0 0.00 0.09 0.05 97 1020.8
20221202132556 51 29 0.0 4.0 0.00 0.09 0.05 97 1020.8
20221202131539 51 5 0.0 4.0 0.00 0.09 0.05 97 1020.8
20221202130544 51 355 0.0 1.0 0.00 0.09 0.05 97 1020.7
20221202125519 51 53 1.0 1.0 0.00 0.09 0.05 97 1020.6
20221202124522 50 52 1.0 6.0 0.00 0.09 0.05 97 1020.4
20221202123515 50 58 2.0 5.0 0.00 0.09 0.05 97 1020.4
20221202122524 50 86 2.0 5.0 0.00 0.09 0.05 97 1020.4
20221202121504 50 79 0.0 5.0 0.00 0.09 0.05 97 1020.4
20221202120446 50 63 0.0 4.0 0.00 0.09 0.05 97 1020.5
20221202115446 50 40 0.0 4.0 0.00 0.09 0.05 97 1020.6
20221202114445 50 50 1.0 4.0 0.00 0.09 0.05 96 1020.5
20221202113430 50 39 1.0 4.0 0.00 0.09 0.05 96 1020.6
20221202112436 50 17 1.0 3.0 0.00 0.09 0.05 96 1020.7
20221202111450 50 49 1.0 3.0 0.00 0.09 0.05 96 1020.7
20221202110509 50 61 1.0 4.0 0.00 0.09 0.05 96 1020.7
20221202105523 50 57 0.0 4.0 0.00 0.09 0.05 96 1020.9
20221202104458 50 15 1.0 6.0 0.00 0.09 0.05 96 1020.9
20221202103448 50 38 2.0 6.0 0.00 0.09 0.05 96 1021.0
20221202102448 50 35 2.0 4.0 0.00 0.09 0.05 96 1021.0
20221202101456 50 32 1.0 4.0 0.00 0.08 0.05 96 1021.3
20221202085735 49 22 0.0 0.0 0.00 0.07 0.03 96 1022.1
20221202073905 49 22 0.0 0.0 0.00 0.05 0.01 96 1022.6
20221202072841 49 18 0.0 3.0 0.00 0.05 0.01 96 1022.6
20221202071902 49 94 0.0 3.0 0.00 0.05 0.01 96 1022.8
20221202070849 49 18 0.0 1.0 0.00 0.04 0.00 96 1022.8
20221202065835 49 47 0.0 0.0 0.00 0.04 0.00 96 1023.0
20221202064841 49 47 0.0 0.0 0.00 0.04 0.00 96 1023.2
20221202063831 49 47 0.0 0.0 0.00 0.04 0.00 96 1023.4
20221202062848 49 5 0.0 0.0 0.00 0.04 0.00 96 1023.6
20221202060655 48 355 0.0 1.0 0.00 0.04 0.00 95 1023.8